Aérodrome :
LOGIN :

S'inscrire | Disclaimer

   EN    FR    IT 

 










Légende :    VFR   VFR Marginal   IFR   IFR Intensif   IFR Très Intensif
Visi : 
Plafond : 
>= 8 km
>= 3000ft
5 à 8 km
1000 à 3000 ft
1500m à 5 km
500 à 1000 ft
800 à 1500m
200 à 500 ft
< 800m
< 200 ft
Symboles :   Orages  Brouillard  Fortes neiges  Fortes précipitations  Vent > 20 kt
SIGMETs :   Divers  Orages  Givrage  Turbulence  Onde Orograph.  Cendres Volcan.







- Altitude de l'aérodrome : 989 ft
- Code IATA : TRN


LIMF - Torino Caselle

DERNIER METAR :
  • 201350Z VRB04KT CAVOK 23/M05 Q1015

METARs EXPIRÉS :
  • 201320Z 16005KT 110V270 CAVOK 23/M06 Q1015
  • 201250Z 19006KT 130V260 CAVOK 23/M04 Q1015
  • 201220Z 16006KT 070V210 CAVOK 23/M04 Q1016
  • 201150Z 19007KT CAVOK 22/M02 Q1016

TAF TAF LIMF
Valide du 20 à 12h jusqu'au 21 à 12h UTC


201100Z 2012/2112 VRB05KT CAVOK
Pas de NOTAMs connus pour ce terrain.



MET'MAP, la Météo Aéronautique d'un coup d'oeil ! - Copyright ORBIFLY Décembre 2007 - Disclaimer

ORBIFLY MET'MAP TEAM :

Programmation & Développement : Alexandra Zaïnal
Conception & Développement : Baudouin d'Aumeries
Co-Programmation & Développement : Marc-Olivier Méhu
Soutien technique & logistique : Manuel Goepfert

Contact : metmap@orbifly.com




SOURCES & CREDITS :

   NOAA